Starlink 31479

operational
NORAD ID: 59316 Int'l Des: 2024-056 Owner: SPXS Country: US Constellation: starlink
LEOCIRCULAR

Über Starlink 31479

Beschreibung wird geladen...

Live-Position

3D-Globus wird geladen...

Nächste Überflüge

Höhenverlauf

Altitude vs Time

uPlot chart will show altitude changes over time

Zweizeiliger Elementsatz

1 59316U 24056W 25306.09740675 -.00000422 00000-0 -57945-5 0 9990
2 59316 43.0029 235.3494 0001828 280.5638 79.5007 15.27586874 91590
Epoch: 2. Nov. 2025 • Age: 42 hours

Aktueller Status

Höhe 490.1 km
Geschwindigkeit 7.62 km/s
Subsatellitenpunkt -30.65°S, 164.59°W
Startdatum 24. März 2024
Alter 1.6 years
Typ internet

Technische Details

Klassifizierung Payload
Masse 730.00 kg
Trockenmasse 700.00 kg
Gesamtmasse 730.00 kg
Länge 0.30 m
Durchmesser 4.10 m
Spannweite 29.00 m
Form Box + pan
Hersteller SPXS
Bus-Typ Starlink V2M
Phasenstatus In Orbit
Besitzer/Staat SPXS/US

Große Konstellationen

Loading constellations...